H1 CPF 2 NER 2023 7 7 9 188 01 glonass134 H2 1407501 9134 40315 2023 7 7 0 0 0 2023 7 10 23 45 0 900 1 1 0 0 0 1 H9 10 0 60132 0.00000 0 -3948436.169 19995098.185 15306104.245 10 0 60132 900.00000 0 -4785997.511 21512411.725 12793898.619 10 0 60132 1800.00000 0 -5366705.710 22795820.731 10032438.154 10 0 60132 2700.00000 0 -5715818.744 23793406.703 7075391.320 10 0 60132 3600.00000 0 -5868393.352 24461571.104 3980325.577 10 0 60132 4500.00000 0 -5867546.173 24766894.667 807578.304 10 0 60132 5400.00000 0 -5762370.815 24687588.371 -2380933.538 10 0 60132 6300.00000 0 -5605600.464 24214472.436 -5522940.316 10 0 60132 7200.00000 0 -5451117.109 23351439.843 -8557057.188 10 0 60132 8100.00000 0 -5351415.538 22115383.275 -11424005.648 10 0 60132 9000.00000 0 -5355132.418 20535587.676 -14067792.942 10 0 60132 9900.00000 0 -5504747.999 18652614.016 -16436824.037 10 0 60132 10800.00000 0 -5834560.283 16516721.927 -18484922.606 10 0 60132 11700.00000 0 -6369019.452 14185898.802 -20172239.792 10 0 60132 12600.00000 0 -7121494.292 11723579.742 -21466032.292 10 0 60132 13500.00000 0 -8093523.352 9196155.635 -22341294.588 10 0 60132 14400.00000 0 -9274582.312 6670375.116 -22781233.601 10 0 60132 15300.00000 0 -10642376.691 4210750.053 -22777577.668 10 0 60132 16200.00000 0 -12163646.421 1877073.143 -22330715.371 10 0 60132 17100.00000 0 -13795447.176 -277849.333 -21449663.352 10 0 60132 18000.00000 0 -15486853.231 -2210156.429 -20151865.636 10 0 60132 18900.00000 0 -17181009.291 -3886503.638 -18462830.256 10 0 60132 19800.00000 0 -18817444.465 -5285183.512 -16415611.901 10 0 60132 20700.00000 0 -20334551.045 -6396752.317 -14050152.137 10 0 60132 21600.00000 0 -21672124.476 -7224140.058 -11412491.071 10 0 60132 22500.00000 0 -22773858.822 -7782242.723 -8553866.536 10 0 60132 23400.00000 0 -23589694.389 -8097016.943 -5529718.626 10 0 60132 24300.00000 0 -24077920.681 -8204117.637 -2398618.901 10 0 60132 25200.00000 0 -24206948.297 -8147137.759 778855.401 10 0 60132 26100.00000 0 -23956677.275 -7975525.249 3941281.011 10 0 60132 27000.00000 0 -23319406.054 -7742265.208 7027560.700 10 0 60132 27900.00000 0 -22300244.150 -7501424.500 9978086.421 10 0 60132 28800.00000 0 -20917011.849 -7305661.320 12735872.424 10 0 60132 29700.00000 0 -19199631.054 -7203803.368 15247638.072 10 0 60132 30600.00000 0 -17189031.982 -7238595.302 17464821.085 10 0 60132 31500.00000 0 -14935619.905 -7444709.158 19344503.108 10 0 60132 32400.00000 0 -12497363.874 -7847100.669 20850231.128 10 0 60132 33300.00000 0 -9937584.540 -8459780.497 21952719.882 10 0 60132 34200.00000 0 -7322530.531 -9285052.618 22630422.265 10 0 60132 35100.00000 0 -4718841.462 -10313253.228 22869956.811 10 0 60132 36000.00000 0 -2191000.616 -11523003.292 22666383.494 10 0 60132 36900.00000 0 201118.796 -12881966.846 22023321.423 10 0 60132 37800.00000 0 2404513.168 -14348086.330 20952904.569 10 0 60132 38700.00000 0 4375020.549 -15871246.279 19475574.346 10 0 60132 39600.00000 0 6078923.039 -17395298.493 17619710.766 10 0 60132 40500.00000 0 7494112.147 -18860366.009 15421106.938 10 0 60132 41400.00000 0 8610767.389 -20205330.690 12922294.871 10 0 60132 42300.00000 0 9431518.500 -21370400.497 10171733.783 10 0 60132 43200.00000 0 9971083.248 -22299648.017 7222875.359 10 0 60132 44100.00000 0 10255395.260 -22943412.097 4133123.433 10 0 60132 45000.00000 0 10320258.165 -23260459.255 962708.478 10 0 60132 45900.00000 0 10209583.256 -23219811.201 -2226500.360 10 0 60132 46800.00000 0 9973286.123 -22802158.602 -5372221.050 10 0 60132 47700.00000 0 9664933.068 -22000798.853 -8412996.295 10 0 60132 48600.00000 0 9339239.258 -20822056.150 -11289416.550 10 0 60132 49500.00000 0 9049527.283 -19285164.631 -13945302.138 10 0 60132 50400.00000 0 8845256.560 -17421618.827 -16328819.119 10 0 60132 51300.00000 0 8769730.810 -15274018.845 -18393505.245 10 0 60132 52200.00000 0 8858082.796 -12894459.563 -20099184.653 10 0 60132 53100.00000 0 9135623.090 -10342532.772 -21412752.672 10 0 60132 54000.00000 0 9616623.436 -7683027.477 -22308815.441 10 0 60132 54900.00000 0 10303586.106 -4983426.039 -22770172.422 10 0 60132 55800.00000 0 11187029.387 -2311301.991 -22788133.535 10 0 60132 56700.00000 0 12245797.059 268271.316 -22362666.298 10 0 60132 57600.00000 0 13447877.304 2695193.307 -21502371.891 10 0 60132 58500.00000 0 14751694.943 4916587.882 -20224292.526 10 0 60132 59400.00000 0 16107821.134 6888742.177 -18553555.759 10 0 60132 60300.00000 0 17461027.466 8578654.059 -16522864.329 10 0 60132 61200.00000 0 18752597.358 9965126.836 -14171842.921 10 0 60132 62100.00000 0 19922797.420 11039368.907 -11546255.678 10 0 60132 63000.00000 0 20913405.332 11805076.739 -8697110.383 10 0 60132 63900.00000 0 21670188.873 12278001.025 -5679667.126 10 0 60132 64800.00000 0 22145233.276 12485017.089 -2552370.698 10 0 60132 65700.00000 0 22299020.713 12462740.852 624273.009 10 0 60132 66600.00000 0 22102176.215 12255750.029 3788855.445 10 0 60132 67500.00000 0 21536808.289 11914486.121 6880237.314 10 0 60132 68400.00000 0 20597389.176 11492925.455 9838712.561 10 0 60132 69300.00000 0 19291138.569 11046116.631 12607143.347 10 0 60132 70200.00000 0 17637894.831 10627686.888 15132045.687 10 0 60132 71100.00000 0 15669478.420 10287420.900 17364606.424 10 0 60132 72000.00000 0 13428572.851 10069012.486 19261613.397 10 0 60132 72900.00000 0 10967167.849 10008082.569 20786282.218 10 0 60132 73800.00000 0 8344627.085 10130546.002 21908964.743 10 0 60132 74700.00000 0 5625458.101 10451395.786 22607726.146 10 0 60132 75600.00000 0 2876874.210 10973956.405 22868779.568 10 0 60132 76500.00000 0 166246.923 11689639.059 22686769.477 10 0 60132 77400.00000 0 -2441447.692 12578211.150 22064897.214 10 0 60132 78300.00000 0 -4886084.429 13608571.318 21014884.712 10 0 60132 79200.00000 0 -7114645.272 14740000.351 19556775.095 10 0 60132 80100.00000 0 -9083183.104 15923838.230 17718571.700 10 0 60132 81000.00000 0 -10758410.715 17105519.319 15535720.171 10 0 60132 81900.00000 0 -12118847.956 18226881.934 13050441.355 10 0 60132 82800.00000 0 -13155477.813 19228656.084 10310926.100 10 0 60132 83700.00000 0 -13871882.627 20053024.616 7370406.173 10 0 60132 84600.00000 0 -14283853.553 20646148.844 4286118.654 10 0 60132 85500.00000 0 -14418488.953 20960550.279 1118184.039 10 0 60133 0.00000 0 -14312819.575 20957245.486 -2071579.010 10 0 60133 900.00000 0 -14012019.081 20607541.032 -5220879.424 10 0 60133 1800.00000 0 -13567277.045 19894409.911 -8268189.761 10 0 60133 2700.00000 0 -13033426.202 18813388.770 -11153971.766 10 0 60133 3600.00000 0 -12466426.907 17372955.936 -13821860.884 10 0 60133 4500.00000 0 -11920817.987 15594373.017 -16219785.970 10 0 60133 5400.00000 0 -11447244.432 13510996.213 -18301000.202 10 0 60133 6300.00000 0 -11090168.868 11167086.446 -20025001.676 10 0 60133 7200.00000 0 -10885865.227 8616169.142 -21358324.963 10 0 60133 8100.00000 0 -10860780.403 5919013.581 -22275188.102 10 0 60133 9000.00000 0 -11030333.215 3141317.771 -22757982.994 10 0 60133 9900.00000 0 -11398200.770 351196.788 -22797600.712 10 0 60133 10800.00000 0 -11956121.060 -2383419.738 -22393586.928 10 0 60133 11700.00000 0 -12684218.395 -4997372.297 -21554126.243 10 0 60133 12600.00000 0 -13551836.029 -7430731.084 -20295857.618 10 0 60133 13500.00000 0 -14518838.964 -9631029.362 -18643526.388 10 0 60133 14400.00000 0 -15537330.388 -11555179.587 -16629481.331 10 0 60133 15300.00000 0 -16553708.187 -13170995.074 -14293028.052 10 0 60133 16200.00000 0 -17510974.211 -14458256.866 -11679652.386 10 0 60133 17100.00000 0 -18351198.931 -15409284.607 -8840129.664 10 0 60133 18000.00000 0 -19018038.150 -16028990.853 -5829537.563 10 0 60133 18900.00000 0 -19459196.770 -16334419.632 -2706191.708 10 0 60133 19800.00000 0 -19628737.242 -16353791.147 469475.695 10 0 60133 20700.00000 0 -19489137.064 -16125094.615 3636073.123 10 0 60133 21600.00000 0 -19013010.313 -15694289.526 6732421.475 10 0 60133 22500.00000 0 -18184422.141 -15113191.245 9698718.908 10 0 60133 23400.00000 0 -16999741.922 -14437129.508 12477677.647 10 0 60133 24300.00000 0 -15467999.544 -13722477.305 15015612.399 10 0 60133 25200.00000 0 -13610729.527 -13024152.640 17263461.019 10 0 60133 26100.00000 0 -11461308.325 -12393196.610 19177719.198 10 0 60133 27000.00000 0 -9063810.658 -11874528.043 20721272.554 10 0 60133 27900.00000 0 -6471430.049 -11504967.785 21864111.118 10 0 60133 28800.00000 0 -3744526.489 -11311614.859 22583913.047 10 0 60133 29700.00000 0 -948379.288 -11310642.615 22866486.429 10 0 60133 30600.00000 0 1849264.577 -11506566.058 22706060.220 10 0 60133 31500.00000 0 4580747.555 -11892012.499 22105417.649 10 0 60133 32400.00000 0 7181060.125 -12448007.152 21075867.964 10 0 60133 33300.00000 0 9590296.217 -13144764.089 19637055.055 10 0 60133 34200.00000 0 11755904.109 -13942951.876 17816604.368 10 0 60133 35100.00000 0 13634639.151 -14795383.074 15649612.563 10 0 60133 36000.00000 0 15194136.218 -15649058.455 13177987.522 10 0 60133 36900.00000 0 16414035.026 -16447481.103 10449649.597 10 0 60133 37800.00000 0 17286609.760 -17133143.168 7517608.205 10 0 60133 38700.00000 0 17816875.186 -17650079.826 4438930.959 10 0 60133 39600.00000 0 18022163.620 -17946381.028 1273625.445 10 0 60133 40500.00000 0 17931189.928 -17976552.724 -1916543.804 10 0 60133 41400.00000 0 17582644.059 -17703624.943 -5069278.658 10 0 60133 42300.00000 0 17023371.325 -17100914.641 -8122985.161 10 0 60133 43200.00000 0 16306218.879 -16153365.947 -11017999.286 10 0 60133 44100.00000 0 15487641.560 -14858408.656 -13697774.314 10 0 60133 45000.00000 0 14625170.848 -13226296.889 -16110004.356 10 0 60133 45900.00000 0 13774856.521 -11279912.461 -18207660.154 10 0 60133 46800.00000 0 12988791.523 -9054040.865 -19949915.553 10 0 60133 47700.00000 0 12312826.500 -6594150.614 -21302945.745 10 0 60133 48600.00000 0 11784571.696 -3954727.983 -22240581.620 10 0 60133 49500.00000 0 11431770.894 -1197238.013 -22744808.007 10 0 60133 50400.00000 0 11271115.528 1612201.749 -22806097.147 10 0 60133 51300.00000 0 11307547.712 4405336.707 -22423572.441 10 0 60133 52200.00000 0 11534079.737 7114374.430 -21605001.058 10 0 60133 53100.00000 0 11932135.423 9674559.381 -20366617.466 10 0 60133 54000.00000 0 12472396.597 12026616.717 -18732783.186 10 0 60133 54900.00000 0 13116116.836 14118964.891 -16735491.125 10 0 60133 55800.00000 0 13816845.207 15909607.043 -14413725.605 10 0 60133 56700.00000 0 14522486.005 17367625.050 -11812691.680 10 0 60133 57600.00000 0 15177606.932 18474216.966 -8982929.509 10 0 60133 58500.00000 0 15725898.248 19223237.677 -5979331.432 10 0 60133 59400.00000 0 16112679.757 19621223.245 -2860080.843 10 0 60133 60300.00000 0 16287350.891 19686900.650 314466.883 10 0 60133 61200.00000 0 16205681.963 19450205.614 3482940.366 10 0 60133 62100.00000 0 15831851.515 18950851.231 6584123.715 10 0 60133 63000.00000 0 15140145.333 18236508.167 9558122.123 10 0 60133 63900.00000 0 14116246.726 17360672.789 12347500.442 10 0 60133 64800.00000 0 12758064.391 16380312.037 14898374.349 10 0 60133 65700.00000 0 11076063.004 15353382.604 17161434.659 10 0 60133 66600.00000 0 9093081.811 14336326.982 19092886.541 10 0 60133 67500.00000 0 6843647.187 13381649.683 20655286.911 10 0 60133 68400.00000 0 4372805.496 12535673.722 21818264.919 10 0 60133 69300.00000 0 1734522.090 11836570.192 22559112.282 10 0 60133 70200.00000 0 -1010290.163 11312742.827 22863232.220 10 0 60133 71100.00000 0 -3796034.115 10981635.259 22724437.926 10 0 60133 72000.00000 0 -6554892.396 10849011.633 22145093.804 10 0 60133 72900.00000 0 -9219392.617 10908742.100 21136095.212 10 0 60133 73800.00000 0 -11724969.151 11143104.032 19716685.108 10 0 60133 74700.00000 0 -14012416.231 11523588.460 17914108.869 10 0 60133 75600.00000 0 -16030130.631 12012180.041 15763111.577 10 0 60133 76500.00000 0 -17736050.097 12563058.614 13305285.210 10 0 60133 77400.00000 0 -19099205.473 13124652.070 10588276.457 10 0 60133 78300.00000 0 -20100820.136 13641954.598 7664869.092 10 0 60133 79200.00000 0 -20734908.969 14059012.225 4591957.943 10 0 60133 80100.00000 0 -21008350.167 14321469.457 1429434.435 10 0 60133 81000.00000 0 -20940425.730 14379067.360 -1760993.869 10 0 60133 81900.00000 0 -20561849.467 14187984.817 -4917025.303 10 0 60133 82800.00000 0 -19913323.724 13712920.901 -7977001.867 10 0 60133 83700.00000 0 -19043686.802 12928827.225 -10881136.259 10 0 60133 84600.00000 0 -18007730.990 11822214.216 -13572701.814 10 0 60133 85500.00000 0 -16863785.588 10391973.799 -15999159.765 10 0 60134 0.00000 0 -15671169.590 8649682.274 -18113199.728 10 0 60134 900.00000 0 -14487623.289 6619368.724 -19873672.724 10 0 60134 1800.00000 0 -13366830.855 4336760.905 -21246394.952 10 0 60134 2700.00000 0 -12356137.654 1848037.640 -22204810.290 10 0 60134 3600.00000 0 -11494560.736 -791856.884 -22730496.176 10 0 60134 4500.00000 0 -10811175.450 -3521266.150 -22813505.284 10 0 60134 5400.00000 0 -10323945.133 -6274154.695 -22452537.596 10 0 60134 6300.00000 0 -10039041.299 -8982623.755 -21654941.346 10 0 60134 7200.00000 0 -9950680.605 -11579503.933 -20436544.667 10 0 60134 8100.00000 0 -10041482.777 -14000917.219 -18821323.160 10 0 60134 9000.00000 0 -10283331.741 -16188702.635 -16840911.538 10 0 60134 9900.00000 0 -10638701.205 -18092606.058 -14533970.370 10 0 60134 10800.00000 0 -11062386.818 -19672145.226 -11945421.409 10 0 60134 11700.00000 0 -11503570.411 -20898074.780 -9125567.135 10 0 60134 12600.00000 0 -11908128.517 -21753393.090 -6129112.114 10 0 60134 13500.00000 0 -12221087.682 -22233851.721 -3014105.190 10 0 60134 14400.00000 0 -12389123.497 -22347948.945 159177.283 10 0 60134 15300.00000 0 -12362998.927 -22116409.866 3329386.145 10 0 60134 16200.00000 0 -12099840.372 -21571176.653 6435270.681 10 0 60134 17100.00000 0 -11565156.894 -20753952.195 9416844.998 10 0 60134 18000.00000 0 -10734518.735 -19714358.510 12216528.383 10 0 60134 18900.00000 0 -9594825.323 -18507786.638 14780239.185 10 0 60134 19800.00000 0 -8145109.687 -17193027.061 17058422.770 10 0 60134 20700.00000 0 -6396845.015 -15829778.380 19006995.214 10 0 60134 21600.00000 0 -4373739.250 -14476136.812 20588185.956 10 0 60134 22500.00000 0 -2111024.225 -13186169.737 21771264.261 10 0 60134 23400.00000 0 345733.690 -12007673.264 22533136.139 10 0 60134 24300.00000 0 2942255.010 -10980206.398 22858800.397 10 0 60134 25200.00000 0 5617536.585 -10133483.432 22741654.653 10 0 60134 26100.00000 0 8306129.641 -9486191.851 22183644.401 10 0 60134 27000.00000 0 10940614.748 -9045285.957 21195250.759 10 0 60134 27900.00000 0 13454173.285 -8805787.045 19795315.134 10 0 60134 28800.00000 0 15783150.100 -8751100.250 18010701.949 10 0 60134 29700.00000 0 17869501.492 -8853836.600 15875803.529 10 0 60134 30600.00000 0 19663026.414 -9077107.537 13431894.446 10 0 60134 31500.00000 0 21123286.825 -9376238.843 10726345.877 10 0 60134 32400.00000 0 22221135.433 -9700832.517 7811713.734 10 0 60134 33300.00000 0 22939784.975 -9997089.660 4744717.488 10 0 60134 34200.00000 0 23275372.290 -10210295.362 1585129.510 10 0 60134 35100.00000 0 23236991.829 -10287358.823 -1605402.737 10 0 60134 36000.00000 0 22846196.111 -10179298.851 -4764577.323 10 0 60134 36900.00000 0 22135983.770 -9843566.639 -7830675.478 10 0 60134 37800.00000 0 21149318.266 -9246104.382 -10743789.801 10 0 60134 38700.00000 0 19937240.932 -8363049.646 -13447016.647 10 0 60134 39600.00000 0 18556659.778 -7182010.725 -15887587.062 10 0 60134 40500.00000 0 17067909.546 -5702857.066 -18017912.235 10 0 60134 41400.00000 0 15532188.210 -3937989.998 -19796521.592 10 0 60134 42300.00000 0 14008980.105 -1912081.741 -21188874.354 10 0 60134 43200.00000 0 12553575.847 338706.288 -22168028.570 10 0 60134 44100.00000 0 11214794.341 2767992.500 -22715155.047 10 0 60134 45000.00000 0 10033002.790 5320877.361 -22819887.197 10 0 60134 45900.00000 0 9038517.113 7936006.567 -22480501.449 10 0 60134 46800.00000 0 8250448.329 10547908.069 -21703926.507 10 0 60134 47700.00000 0 7676041.049 13089504.774 -20505583.164 10 0 60134 48600.00000 0 7310529.049 15494698.063 -18909059.673 10 0 60134 49500.00000 0 7137510.974 17700914.920 -16945630.750 10 0 60134 50400.00000 0 7129827.380 19651513.598 -14653631.059 10 0 60134 51300.00000 0 7250899.560 21297949.239 -12077696.563 10 0 60134 52200.00000 0 7456471.609 22601611.340 -9267889.292 10 0 60134 53100.00000 0 7696680.801 23535258.859 -6278723.029 10 0 60134 54000.00000 0 7918368.238 24083995.708 -3168108.877 10 0 60134 54900.00000 0 8067532.189 24245748.457 3759.116 10 0 60134 55800.00000 0 8091821.181 24031228.541 3175557.302 10 0 60134 56700.00000 0 7942962.639 23463382.402 6286003.344 10 0 60134 57600.00000 0 7579025.893 22576353.784 9275023.291 10 0 60134 58500.00000 0 6966425.430 21414002.112 12084893.638 10 0 60134 59400.00000 0 6081581.024 20028038.762 14661337.895 10 0 60134 60300.00000 0 4912165.477 18475858.320 16954558.139 10 0 60134 61200.00000 0 3457887.453 16818154.091 18920183.186 10 0 60134 62100.00000 0 1730775.739 15116415.744 20520116.492 10 0 60134 63000.00000 0 -245048.674 13430411.663 21723268.576 10 0 60134 63900.00000 0 -2434105.503 11815759.262 22506160.519 10 0 60134 64800.00000 0 -4790765.496 10321683.088 22853387.104 10 0 60134 65700.00000 0 -7260891.086 8989053.162 22757930.328 10 0 60134 66600.00000 0 -9783842.497 7848784.922 22221316.261 10 0 60134 67500.00000 0 -12294769.088 6920667.748 21253610.764 10 0 60134 68400.00000 0 -14727093.408 6212671.724 19873252.163 10 0 60134 69300.00000 0 -17015086.654 5720762.932 18106721.866 10 0 60134 70200.00000 0 -19096429.468 5429236.524 15988056.902 10 0 60134 71100.00000 0 -20914651.623 5311555.196 13558211.476 10 0 60134 72000.00000 0 -22421348.068 5331659.236 10864277.963 10 0 60134 72900.00000 0 -23578077.310 5445693.901 7958580.913 10 0 60134 73800.00000 0 -24357860.709 5604081.564 4897660.839 10 0 60134 74700.00000 0 -24746217.636 5753850.603 1741167.462 10 0 60134 75600.00000 0 -24741690.942 5841121.191 -1449315.358 10 0 60134 76500.00000 0 -24355838.965 5813640.717 -4611488.753 10 0 60134 77400.00000 0 -23612693.355 5623258.763 -7683576.310 10 0 60134 78300.00000 0 -22547705.308 5228233.811 -10605553.388 10 0 60134 79200.00000 0 -21206225.168 4595270.897 -13320341.913 10 0 60134 80100.00000 0 -19641580.797 3701201.141 -15774944.930 10 0 60134 81000.00000 0 -17912837.535 2534229.715 -17921496.772 10 0 60134 81900.00000 0 -16082336.234 1094697.807 -19718206.902 10 0 60134 82800.00000 0 -14213115.127 -604674.587 -21130178.052 10 0 60134 83700.00000 0 -12366325.753 -2539075.588 -22130082.563 10 0 60134 84600.00000 0 -10598752.716 -4672405.695 -22698684.155 10 0 60134 85500.00000 0 -8960541.894 -6958564.889 -22825195.972 10 0 60135 0.00000 0 -7493232.042 -9343167.377 -22507469.439 10 0 60135 900.00000 0 -6228170.277 -11765612.530 -21752011.745 10 0 60135 1800.00000 0 -5185377.647 -14161421.379 -20573834.058 10 0 60135 2700.00000 0 -4372906.977 -16464744.846 -18996134.732 10 0 60135 3600.00000 0 -3786718.769 -18610935.960 -17049825.749 10 0 60135 4500.00000 0 -3411076.229 -20539080.519 -14772913.035 10 0 60135 5400.00000 0 -3219439.841 -22194381.633 -12209743.930 10 0 60135 6300.00000 0 -3175821.099 -23530300.309 -9410137.262 10 0 60135 7200.00000 0 -3236536.238 -24510364.797 -6428413.411 10 0 60135 8100.00000 0 -3352284.631 -25109575.438 -3322343.319 10 0 60135 9000.00000 0 -3470463.527 -25315348.691 -152036.504 10 0 60135 9900.00000 0 -3537621.510 -25127963.011 3021210.907 10 0 60135 10800.00000 0 -3501947.782 -24560489.824 6136086.784 10 0 60135 11700.00000 0 -3315693.301 -23638213.738 9132430.785 10 0 60135 12600.00000 0 -2937422.909 -22397566.938 11952378.138 10 0 60135 13500.00000 0 -2334004.715 -20884622.285 14541458.905 10 0 60135 14400.00000 0 -1482253.870 -19153207.362 16849633.133 10 0 60135 15300.00000 0 -370161.913 -17262716.922 18832243.469 10 0 60135 16200.00000 0 1002340.219 -15275713.259 20450868.309 10 0 60135 17100.00000 0 2623118.718 -13255412.517 21674060.155 10 0 60135 18000.00000 0 4468085.885 -11263159.609 22477955.669 10 0 60135 18900.00000 0 6501953.788 -9355995.041 22846745.904 10 0 60135 19800.00000 0 8679464.323 -7584413.387 22772997.313 10 0 60135 20700.00000 0 10947047.738 -5990405.824 22257816.411 10 0 60135 21600.00000 0 13244843.936 -4605867.886 21310853.461 10 0 60135 22500.00000 0 15509005.392 -3451439.079 19950143.163 10 0 60135 23400.00000 0 17674188.188 -2535823.635 18201783.152 10 0 60135 24300.00000 0 19676128.937 -1855622.005 16099454.165 10 0 60135 25200.00000 0 21454200.794 -1395681.550 13683788.785 10 0 60135 26100.00000 0 22953841.449 -1129953.063 11001599.026 10 0 60135 27000.00000 0 24128750.381 -1022818.161 8104976.197 10 0 60135 27900.00000 0 24942761.458 -1030832.085 5050279.633 10 0 60135 28800.00000 0 25371310.017 -1104808.199 1897033.869 10 0 60135 29700.00000 0 25402430.414 -1192155.055 -1293243.632 10 0 60135 30600.00000 0 25037239.904 -1239365.410 -4458260.062 10 0 60135 31500.00000 0 24289886.837 -1194549.351 -7536184.414 10 0 60135 32400.00000 0 23186964.389 -1009901.392 -10466877.836 10 0 60135 33300.00000 0 21766414.384 -643993.953 -13193090.701 10 0 60135 34200.00000 0 20075968.099 -63797.153 -15661600.701 10 0 60135 35100.00000 0 18171191.015 753663.159 -17824267.702 10 0 60135 36000.00000 0 16113215.634 1820081.269 -19638983.279 10 0 60135 36900.00000 0 13966259.665 3135134.399 -21070495.447 10 0 60135 37800.00000 0 11795035.696 4686264.121 -22091092.290 10 0 60135 38700.00000 0 9662162.459 6448985.555 -22681131.564 10 0 60135 39600.00000 0 7625687.021 8387710.704 -22829406.909 10 0 60135 40500.00000 0 5736821.631 10457050.394 -22533345.022 10 0 60135 41400.00000 0 4037989.011 12603539.129 -21799031.667 10 0 60135 42300.00000 0 2561256.121 14767709.536 -20641067.907 10 0 60135 43200.00000 0 1327219.371 16886428.833 -19082261.296 10 0 60135 44100.00000 0 344384.843 18895399.268 -17153159.736 10 0 60135 45000.00000 0 -390933.914 20731718.138 -14891438.658 10 0 60135 45900.00000 0 -894199.677 22336391.113 -12341154.635 10 0 60135 46800.00000 0 -1191737.636 23656695.077 -9551880.779 10 0 60135 47700.00000 0 -1319364.887 24648293.358 -6577741.275 10 0 60135 48600.00000 0 -1320623.122 25277016.892 -3476363.857 10 0 60135 49500.00000 0 -1244690.250 25520238.952 -307770.320 10 0 60135 50400.00000 0 -1144059.533 25367787.931 2866774.010 10 0 60135 51300.00000 0 -1072083.962 24822361.819 5985930.472 10 0 60135 52200.00000 0 -1080488.666 23899428.340 8989455.500 10 0 60135 53100.00000 0 -1216955.185 22626615.706 11819346.071 10 0 60135 54000.00000 0 -1522878.155 21042619.540 14420941.591 10 0 60135 54900.00000 0 -2031387.776 19195671.030 16743962.617 10 0 60135 55800.00000 0 -2765720.520 17141628.992 18743467.899 10 0 60135 56700.00000 0 -3738006.377 14941773.645 20380712.743 10 0 60135 57600.00000 0 -4948524.108 12660391.844 21623893.286 10 0 60135 58500.00000 0 -6385457.054 10362252.014 22448763.087 10 0 60135 59400.00000 0 -8025161.862 8110071.615 22839110.398 10 0 60135 60300.00000 0 -9832941.631 5962080.476 22787086.628 10 0 60135 61200.00000 0 -11764294.382 3969779.906 22293378.757 10 0 60135 62100.00000 0 -13766588.067 2175989.895 21367220.943 10 0 60135 63000.00000 0 -15781095.436 613265.463 20026243.182 10 0 60135 63900.00000 0 -17745306.569 -697251.419 18296157.686 10 0 60135 64800.00000 0 -19595424.564 -1746495.566 16210286.680 10 0 60135 65700.00000 0 -21268941.259 -2537628.986 13808938.392 10 0 60135 66600.00000 0 -22707185.373 -3085670.368 11138641.300 10 0 60135 67500.00000 0 -23857735.538 -3416618.076 8251249.956 10 0 60135 68400.00000 0 -24676595.395 -3566102.826 5202938.775 10 0 60135 69300.00000 0 -25130037.131 -3577626.736 2053103.262 10 0 60135 70200.00000 0 -25196033.403 -3500463.719 -1136809.377 10 0 60135 71100.00000 0 -24865214.856 -3387311.416 -4304516.147 10 0 60135 72000.00000 0 -24141310.680 -3291796.125 -7388135.058 10 0 60135 72900.00000 0 -23041052.057 -3265939.050 -10327416.404 10 0 60135 73800.00000 0 -21593541.736 -3357694.150 -13064942.089 10 0 60135 74700.00000 0 -19839116.256 -3608664.833 -15547267.160 10 0 60135 75600.00000 0 -17827749.513 -4052098.907 -17725979.267 10 0 60135 76500.00000 0 -15617066.142 -4711248.843 -19558653.823 10 0 60135 77400.00000 0 -13270049.938 -5598168.232 -21009685.238 10 0 60135 78300.00000 0 -10852545.283 -6712996.098 -22050977.785 10 0 60135 79200.00000 0 -8430657.812 -8043759.380 -22662483.017 10 0 60135 80100.00000 0 -6068164.273 -9566701.380 -22832574.185 10 0 60135 81000.00000 0 -3824040.210 -11247121.395 -22558251.815 10 0 60135 81900.00000 0 -1750208.314 -13040689.080 -21845178.169 10 0 60135 82800.00000 0 110399.828 -14895177.049 -20707541.793 10 0 60135 83700.00000 0 1725389.835 -16752538.024 -19167756.686 10 0 60135 84600.00000 0 3073996.719 -18551238.719 -17256003.713 10 0 60135 85500.00000 0 4147680.807 -20228752.393 -15009624.725 99